�������l�o���
Date,Time,MP-1(��Sv/h),MP-2(��Sv/h),MP-3(��Sv/h),MP-4(��Sv/h),MP-5(��Sv/h),MP-6(��Sv/h),MP-7(��Sv/h),MP-8(��Sv/h),����,����(m/s),���J
2019/04/05,00:00,0.777,1.135,0.785,1.455,1.054,0.440,0.782,0.739,��,4.8,��
2019/04/05,00:10,0.776,1.133,0.784,1.456,1.056,0.442,0.781,0.742,��쐼,4.4,��
2019/04/05,00:20,0.776,1.136,0.785,1.455,1.058,0.443,0.782,0.738,��쐼,4.0,��
2019/04/05,00:30,0.776,1.137,0.785,1.454,1.055,0.442,0.781,0.740,��쐼,5.6,��
2019/04/05,00:40,0.775,1.140,0.785,1.455,1.056,0.441,0.781,0.739,��쐼,5.3,��
2019/04/05,00:50,0.776,1.138,0.786,1.454,1.055,0.441,0.781,0.738,��쐼,6.0,��
2019/04/05,01:00,0.774,1.136,0.786,1.454,1.057,0.441,0.781,0.741,�쐼,5.2,��
2019/04/05,01:10,0.775,1.138,0.785,1.455,1.057,0.443,0.782,0.740,�쐼,5.4,��
2019/04/05,01:20,0.776,1.138,0.787,1.457,1.055,0.442,0.782,0.739,�쐼,3.9,��
2019/04/05,01:30,0.776,1.137,0.785,1.454,1.057,0.442,0.782,0.738,�쐼,3.3,��
2019/04/05,01:40,0.775,1.136,0.785,1.454,1.055,0.441,0.782,0.739,��쐼,4.1,��
2019/04/05,01:50,0.775,1.138,0.785,1.453,1.055,0.443,0.783,0.739,��쐼,4.9,��
2019/04/05,02:00,0.776,1.135,0.786,1.456,1.057,0.442,0.781,0.741,��쐼,6.4,��
2019/04/05,02:10,0.775,1.136,0.786,1.456,1.057,0.441,0.783,0.741,��쐼,7.4,��
2019/04/05,02:20,0.775,1.140,0.786,1.457,1.058,0.442,0.784,0.741,��쐼,8.2,��
2019/04/05,02:30,0.776,1.137,0.787,1.455,1.057,0.444,0.784,0.741,�쐼,6.9,��
2019/04/05,02:40,0.776,1.136,0.785,1.458,1.057,0.441,0.782,0.742,�쐼,7.7,��
2019/04/05,02:50,0.777,1.135,0.786,1.457,1.056,0.443,0.783,0.741,�쐼,6.6,��
2019/04/05,03:00,0.777,1.136,0.786,1.457,1.055,0.442,0.784,0.740,��쐼,6.4,��
2019/04/05,03:10,0.775,1.136,0.787,1.454,1.056,0.442,0.783,0.740,��쐼,6.9,��
2019/04/05,03:20,0.775,1.137,0.785,1.455,1.055,0.442,0.785,0.742,��쐼,8.0,��
2019/04/05,03:30,0.777,1.136,0.786,1.457,1.055,0.444,0.783,0.739,��쐼,9.3,��
2019/04/05,03:40,0.775,1.134,0.785,1.454,1.056,0.442,0.783,0.741,��,8.7,��
2019/04/05,03:50,0.777,1.138,0.787,1.457,1.056,0.442,0.783,0.741,��쐼,8.0,��
2019/04/05,04:00,0.775,1.137,0.785,1.455,1.057,0.442,0.783,0.741,��쐼,8.0,��
2019/04/05,04:10,0.774,1.137,0.787,1.456,1.055,0.443,0.783,0.740,��쐼,7.4,��
2019/04/05,04:20,0.776,1.137,0.786,1.458,1.055,0.444,0.784,0.739,��쐼,6.8,��
2019/04/05,04:30,0.776,1.135,0.787,1.457,1.057,0.442,0.784,0.739,��쐼,6.6,��
2019/04/05,04:40,0.776,1.136,0.785,1.457,1.056,0.444,0.783,0.742,��쐼,6.8,��
2019/04/05,04:50,0.776,1.136,0.786,1.458,1.056,0.444,0.782,0.742,��쐼,8.3,��
2019/04/05,05:00,0.778,1.136,0.784,1.454,1.055,0.443,0.785,0.740,��쐼,8.0,��
2019/04/05,05:10,0.774,1.140,0.785,1.455,1.054,0.444,0.785,0.741,��쐼,7.7,��
2019/04/05,05:20,0.776,1.139,0.786,1.457,1.056,0.444,0.785,0.741,��쐼,8.3,��
2019/04/05,05:30,0.776,1.137,0.786,1.454,1.056,0.443,0.784,0.741,��쐼,7.7,��
2019/04/05,05:40,0.775,1.136,0.789,1.454,1.056,0.443,0.782,0.740,��쐼,7.8,��
2019/04/05,05:50,0.778,1.134,0.785,1.455,1.057,0.442,0.784,0.741,��쐼,7.3,��
2019/04/05,06:00,0.777,1.136,0.786,1.455,1.057,0.443,0.783,0.740,��,7.4,��
2019/04/05,06:10,0.778,1.136,0.787,1.455,1.057,0.443,0.783,0.739,��,4.7,��
2019/04/05,06:20,0.774,1.136,0.788,1.457,1.055,0.443,0.784,0.741,��,3.5,��
2019/04/05,06:30,0.778,1.139,0.787,1.455,1.056,0.444,0.784,0.742,��쐼,3.9,��
2019/04/05,06:40,0.778,1.137,0.786,1.455,1.058,0.443,0.784,0.740,��쐼,6.5,��
2019/04/05,06:50,0.777,1.135,0.786,1.453,1.057,0.443,0.786,0.741,��쐼,9.4,��
2019/04/05,07:00,0.775,1.138,0.786,1.457,1.057,0.444,0.786,0.741,��쐼,9.0,��
2019/04/05,07:10,0.776,1.139,0.788,1.457,1.055,0.442,0.784,0.742,��,7.9,��
2019/04/05,07:20,0.779,1.137,0.788,1.458,1.060,0.444,0.786,0.740,��,7.0,��
2019/04/05,07:30,0.779,1.137,0.785,1.457,1.056,0.444,0.785,0.740,��쐼,7.6,��
2019/04/05,07:40,0.779,1.141,0.787,1.458,1.058,0.442,0.787,0.742,��,7.2,��
2019/04/05,07:50,0.778,1.138,0.786,1.459,1.056,0.442,0.786,0.742,��쐼,6.6,��
2019/04/05,08:00,0.778,1.137,0.789,1.460,1.058,0.442,0.786,0.742,��,6.3,��
2019/04/05,08:10,0.780,1.137,0.789,1.460,1.060,0.441,0.786,0.743,��쐼,5.6,��
2019/04/05,08:20,0.780,1.137,0.788,1.460,1.059,0.444,0.784,0.742,��,6.8,��
2019/04/05,08:30,0.778,1.137,0.785,1.459,1.060,0.443,0.786,0.744,��,5.8,��
2019/04/05,08:40,0.779,1.139,0.786,1.462,1.058,0.444,0.785,0.742,��,6.9,��
2019/04/05,08:50,0.781,1.139,0.789,1.458,1.060,0.443,0.784,0.741,��,5.9,��
2019/04/05,09:00,0.778,1.136,0.788,1.460,1.060,0.443,0.785,0.740,��,7.4,��
2019/04/05,09:10,0.779,1.137,0.787,1.461,1.058,0.443,0.783,0.738,��,7.2,��
2019/04/05,09:20,0.778,1.133,0.789,1.461,1.059,0.446,0.785,0.740,��,8.3,��
2019/04/05,09:30,0.779,1.134,0.787,1.459,1.058,0.444,0.785,0.739,��,7.7,��
2019/04/05,09:40,0.778,1.135,0.788,1.460,1.058,0.444,0.784,0.739,��쓌,9.8,��
2019/04/05,09:50,0.780,1.140,0.789,1.461,1.059,0.444,0.785,0.739,��,9.0,��
2019/04/05,10:00,0.780,1.139,0.788,1.461,1.057,0.444,0.786,0.740,��,9.0,��
2019/04/05,10:10,0.780,1.139,0.788,1.464,1.058,0.445,0.785,0.739,��,10.3,��
2019/04/05,10:20,0.779,1.135,0.787,1.460,1.060,0.444,0.785,0.739,��,9.3,��
2019/04/05,10:30,0.779,1.138,0.786,1.459,1.059,0.447,0.784,0.740,��,11.1,��
2019/04/05,10:40,0.779,1.137,0.786,1.461,1.057,0.445,0.785,0.740,��쓌,12.2,��
2019/04/05,10:50,0.779,1.140,0.786,1.460,1.061,0.445,0.786,0.739,��,11.8,��
2019/04/05,11:00,0.779,1.139,0.789,1.461,1.062,0.445,0.785,0.741,��쓌,12.2,��
2019/04/05,11:10,0.779,1.139,0.787,1.460,1.061,0.444,0.786,0.739,��쓌,13.3,��
2019/04/05,11:20,0.778,1.139,0.789,1.461,1.060,0.444,0.784,0.740,��쓌,13.5,��
2019/04/05,11:30,0.778,1.144,0.786,1.463,1.060,0.444,0.786,0.740,��쓌,13.5,��
2019/04/05,11:40,0.779,1.140,0.784,1.462,1.061,0.445,0.783,0.740,��쓌,10.5,��
2019/04/05,11:50,0.779,1.141,0.785,1.461,1.060,0.444,0.786,0.739,��쓌,12.4,��
2019/04/05,12:00,0.778,1.139,0.787,1.461,1.062,0.445,0.784,0.740,��쓌,13.0,��
2019/04/05,12:10,0.778,1.141,0.790,1.461,1.063,0.446,0.785,0.740,��,11.3,��
2019/04/05,12:20,0.779,1.143,0.791,1.463,1.061,0.447,0.786,0.740,��쓌,13.3,��
2019/04/05,12:30,0.779,1.141,0.789,1.465,1.061,0.444,0.786,0.742,��쓌,11.6,��
2019/04/05,12:40,0.781,1.143,0.789,1.464,1.064,0.447,0.787,0.741,��쓌,14.9,��
2019/04/05,12:50,0.781,1.141,0.789,1.461,1.060,0.445,0.784,0.740,��쓌,12.4,��
2019/04/05,13:00,0.778,1.136,0.788,1.463,1.064,0.446,0.785,0.740,��쓌,11.6,��
2019/04/05,13:10,0.781,1.142,0.789,1.463,1.065,0.447,0.786,0.741,��,11.7,��
2019/04/05,13:20,0.782,1.140,0.789,1.464,1.063,0.447,0.786,0.740,��,14.4,��
2019/04/05,13:30,0.779,1.135,0.790,1.462,1.063,0.446,0.786,0.741,��,13.0,��
2019/04/05,13:40,0.780,1.143,0.791,1.464,1.065,0.446,0.787,0.743,��,10.2,��
2019/04/05,13:50,0.781,1.141,0.790,1.467,1.066,0.446,0.787,0.741,��,11.3,��
2019/04/05,14:00,0.781,1.142,0.789,1.463,1.065,0.446,0.788,0.742,��쓌,12.0,��
2019/04/05,14:10,0.782,1.146,0.791,1.463,1.066,0.446,0.788,0.742,��,9.3,��
2019/04/05,14:20,0.782,1.146,0.790,1.468,1.062,0.446,0.788,0.743,��,8.5,��
2019/04/05,14:30,0.781,1.142,0.789,1.466,1.066,0.446,0.786,0.740,��,8.8,��
2019/04/05,14:40,0.782,1.142,0.793,1.465,1.064,0.447,0.787,0.741,��,8.8,��
2019/04/05,14:50,0.780,1.144,0.792,1.465,1.066,0.448,0.787,0.741,��,8.2,��
2019/04/05,15:00,0.782,1.144,0.792,1.466,1.065,0.447,0.788,0.742,��,9.4,��
2019/04/05,15:10,0.783,1.145,0.789,1.467,1.063,0.446,0.788,0.740,��,10.0,��
2019/04/05,15:20,0.783,1.143,0.791,1.466,1.065,0.448,0.788,0.743,��,10.3,��
2019/04/05,15:30,0.781,1.145,0.790,1.463,1.063,0.448,0.789,0.743,��,9.3,��
2019/04/05,15:40,0.783,1.147,0.792,1.462,1.066,0.448,0.788,0.742,��,8.5,��
2019/04/05,15:50,0.783,1.145,0.792,1.461,1.064,0.447,0.787,0.744,��,8.9,��
2019/04/05,16:00,0.781,1.146,0.792,1.463,1.063,0.450,0.789,0.743,��,7.9,��
2019/04/05,16:10,0.782,1.147,0.791,1.464,1.066,0.449,0.791,0.743,��,8.5,��
2019/04/05,16:20,0.784,1.146,0.793,1.461,1.065,0.450,0.787,0.740,��,7.9,��
2019/04/05,16:30,0.782,1.148,0.790,1.464,1.065,0.448,0.788,0.742,��,8.5,��
2019/04/05,16:40,0.783,1.148,0.791,1.464,1.066,0.449,0.788,0.743,��쐼,7.1,��
2019/04/05,16:50,0.781,1.145,0.793,1.461,1.066,0.448,0.788,0.745,�쐼,6.5,��
2019/04/05,17:00,0.783,1.147,0.793,1.465,1.064,0.448,0.789,0.743,��,6.7,��
2019/04/05,17:10,0.783,1.149,0.791,1.465,1.068,0.449,0.789,0.743,��,7.7,��
2019/04/05,17:20,0.782,1.150,0.792,1.464,1.067,0.449,0.788,0.744,��,8.1,��
2019/04/05,17:30,0.783,1.151,0.791,1.463,1.063,0.449,0.788,0.743,��,8.4,��
2019/04/05,17:40,0.783,1.150,0.792,1.461,1.067,0.451,0.789,0.743,��,9.3,��
2019/04/05,17:50,0.782,1.146,0.791,1.465,1.065,0.448,0.788,0.743,���k��,8.4,��
2019/04/05,18:00,0.782,1.151,0.792,1.464,1.066,0.448,0.788,0.743,��,11.6,��
2019/04/05,18:10,0.783,1.149,0.790,1.466,1.064,0.448,0.788,0.743,��,9.6,��
2019/04/05,18:20,0.785,1.151,0.791,1.464,1.063,0.447,0.785,0.743,��,10.2,��
2019/04/05,18:30,0.784,1.149,0.791,1.465,1.062,0.448,0.787,0.743,��,12.2,��
2019/04/05,18:40,0.785,1.150,0.793,1.464,1.065,0.448,0.786,0.743,��,10.6,��
2019/04/05,18:50,0.785,1.150,0.792,1.464,1.064,0.448,0.788,0.741,��,10.2,��
2019/04/05,19:00,0.783,1.150,0.793,1.465,1.064,0.449,0.785,0.742,��,12.2,��
2019/04/05,19:10,0.787,1.150,0.793,1.465,1.065,0.448,0.787,0.742,��,11.8,��
2019/04/05,19:20,0.784,1.149,0.795,1.465,1.067,0.447,0.787,0.744,��,11.9,��
2019/04/05,19:30,0.784,1.150,0.795,1.467,1.065,0.449,0.785,0.741,��,12.0,��
2019/04/05,19:40,0.784,1.150,0.793,1.466,1.067,0.448,0.785,0.741,��,11.6,��
2019/04/05,19:50,0.784,1.151,0.794,1.468,1.067,0.446,0.785,0.743,��,9.5,��
2019/04/05,20:00,0.784,1.150,0.794,1.471,1.067,0.447,0.785,0.742,���k��,10.5,��
2019/04/05,20:10,0.782,1.151,0.794,1.469,1.069,0.448,0.786,0.743,���k��,10.2,��
2019/04/05,20:20,0.784,1.149,0.793,1.469,1.067,0.447,0.784,0.742,���k��,13.3,��
2019/04/05,20:30,0.783,1.151,0.792,1.468,1.067,0.447,0.786,0.744,���k��,11.3,��
2019/04/05,20:40,0.785,1.149,0.793,1.469,1.069,0.447,0.786,0.744,���k��,9.6,��
2019/04/05,20:50,0.783,1.150,0.794,1.470,1.069,0.447,0.786,0.745,��,10.0,��
2019/04/05,21:00,0.785,1.148,0.791,1.470,1.069,0.447,0.787,0.743,��,10.9,��
2019/04/05,21:10,0.782,1.152,0.792,1.467,1.069,0.448,0.786,0.743,��,9.5,��
2019/04/05,21:20,0.784,1.149,0.793,1.469,1.067,0.450,0.787,0.746,��,8.6,��
2019/04/05,21:30,0.784,1.151,0.794,1.470,1.071,0.448,0.788,0.746,��,7.4,��
2019/04/05,21:40,0.785,1.151,0.794,1.470,1.069,0.448,0.785,0.743,��,10.6,��
2019/04/05,21:50,0.782,1.150,0.794,1.470,1.068,0.448,0.787,0.743,��,9.1,��
2019/04/05,22:00,0.782,1.149,0.793,1.471,1.068,0.448,0.785,0.743,��,6.5,��
2019/04/05,22:10,0.785,1.149,0.794,1.469,1.069,0.446,0.787,0.746,��,7.2,��
2019/04/05,22:20,0.781,1.150,0.795,1.471,1.068,0.447,0.787,0.746,���k��,8.0,�L
2019/04/05,22:30,0.784,1.152,0.793,1.469,1.067,0.448,0.786,0.743,���k��,6.4,�L
2019/04/05,22:40,0.782,1.147,0.792,1.467,1.066,0.448,0.784,0.745,���k��,7.5,�L
2019/04/05,22:50,0.782,1.149,0.793,1.468,1.067,0.448,0.784,0.745,���k��,9.4,�L
2019/04/05,23:00,0.783,1.150,0.792,1.469,1.067,0.446,0.785,0.743,���k��,9.6,�L
2019/04/05,23:10,0.783,1.149,0.793,1.468,1.067,0.445,0.785,0.744,�k��,7.5,�L
2019/04/05,23:20,0.782,1.150,0.792,1.470,1.064,0.446,0.785,0.742,�k��,6.5,�L
2019/04/05,23:30,0.781,1.149,0.791,1.470,1.066,0.445,0.784,0.742,�k��,4.5,�L
2019/04/05,23:40,0.781,1.147,0.792,1.469,1.065,0.445,0.783,0.742,���k��,6.3,�L
2019/04/05,23:50,0.784,1.149,0.792,1.469,1.066,0.445,0.784,0.743,���k��,6.4,�L
